Flag for China Weather past 2 weeks in Hangzhou, Zhejiang, China

Now
48 °F

Clear.


Feels Like: 46 °F
Forecast: 32 / 46 °F
Wind: 6 mph from Northwest

Location: Hangzhou Airport

Current Time: Dec 20, 2014 at 2:20:02 PM

Latest Report: Dec 20, 2014 at 2:00 PM


Visibility: 4 mi

Pressure: 30.33 "Hg

Humidity: 40%

Dew point: 25 °F

Location of HangzhouLocation

Historic Weather in Hangzhou — Graph

°F

Hangzhou temperature yesterday

Maximum temperature yesterday: 54 °F (at 2:00 PM)
Minimum temperature yesterday: 37 °F (at 11:30 PM)
Average temperature yesterday: 44 °F

Past Weeks' High & Low Weather Summary

 TemperatureHumidityPressure
High59 °F (Dec 7, 2:00 PM)82% (Dec 10, 4:00 AM)30.63 "Hg (Dec 10, 4:00 AM)
Low28 °F (Dec 18, 4:00 AM)12% (Dec 5, 2:00 PM)30.21 "Hg (Dec 7, 1:00 PM)
Average43 °F50%30.41 "Hg
* Reported Dec 5 1:30 PM — Dec 20 1:00 PM, Hangzhou, Weather by CustomWeather, © 2014

Note: Actual official high and low records may vary slightly from our data, if they occured in-between our weather recording intervals... More about our weather records

Advertising

Hangzhou weather history for previous 24 hours

 ConditionsComfort  
Time TempWeatherWind HumidityBarometerVisibility
1:00 PM
Dec 20
46 °FClear.6 mph46%30.33 "Hg4 mi
12:30 PM46 °FClear.6 mph46%30.33 "Hg4 mi
12:00 PM46 °FClear.8 mph43%30.36 "Hg4 mi
11:30 AM46 °FClear.6 mph46%30.36 "Hg4 mi
11:00 AM45 °FClear.6 mph49%30.39 "Hg4 mi
10:30 AM45 °FClear.3 mph53%30.39 "Hg4 mi
10:00 AM45 °FClear.6 mph57%30.39 "Hg4 mi
9:30 AM43 °FClear.6 mph61%30.39 "Hg4 mi
9:00 AM41 °FClear.8 mph66%30.39 "Hg4 mi
8:30 AM41 °FClear.8 mph66%30.39 "Hg4 mi
8:00 AM41 °FClear.6 mph66%30.36 "Hg4 mi
7:30 AM36 °FClear.1 mph81%30.36 "Hg4 mi
7:00 AM34 °FClear.1 mph75%30.33 "Hg4 mi
6:30 AM34 °FClear.1 mph81%30.33 "Hg4 mi
6:00 AM34 °FClear.1 mph81%30.33 "Hg4 mi
5:30 AM34 °FClear.3 mph81%30.30 "Hg4 mi
5:00 AM34 °FClear.3 mph81%30.30 "Hg4 mi
4:30 AM34 °FClear.3 mph81%30.30 "Hg4 mi
4:00 AM36 °FClear.1 mph75%30.30 "Hg4 mi
3:30 AM37 °FClear.3 mph75%30.30 "Hg4 mi
3:00 AM36 °FFog.3 mph75%30.30 "Hg3 mi
2:30 AM36 °FFog.3 mph75%30.30 "Hg3 mi
2:00 AM37 °FFog.3 mph70%30.30 "Hg3 mi
1:30 AM36 °FHaze.3 mph70%30.30 "Hg3 mi
1:00 AM37 °FClear.1 mph70%30.30 "Hg4 mi
12:30 AM39 °FClear.1 mph70%30.30 "Hg4 mi
12:00 AM39 °FClear.1 mph70%30.30 "Hg4 mi
11:30 PM
Dec 19
37 °FHaze.3 mph70%30.30 "Hg3 mi
11:00 PM39 °FHaze.3 mph65%30.30 "Hg3 mi
10:30 PM39 °FClear.1 mph70%30.30 "Hg4 mi
10:00 PM39 °FClear.1 mph65%30.30 "Hg4 mi
9:30 PM39 °FClear.No wind65%30.30 "Hg4 mi
9:00 PM41 °FClear.No wind61%30.30 "Hg4 mi
8:30 PM41 °FClear.No wind61%30.30 "Hg4 mi
8:00 PM45 °FClear.1 mph53%30.30 "Hg4 mi
7:30 PM46 °FClear.No wind50%30.30 "Hg4 mi
7:00 PM48 °FClear.No wind43%30.30 "Hg4 mi
6:30 PM48 °FClear.3 mph40%30.30 "Hg4 mi
6:00 PM48 °FClear.3 mph40%30.27 "Hg4 mi
5:30 PM50 °FClear.1 mph35%30.27 "Hg10 mi
5:00 PM50 °FPassing clouds.3 mph35%30.27 "HgN/A
4:30 PM50 °FPassing clouds.6 mph35%30.27 "HgN/A
4:00 PM52 °FPassing clouds.3 mph28%30.27 "HgN/A
3:30 PM52 °FPassing clouds.8 mph28%30.27 "HgN/A
3:00 PM52 °FPassing clouds.6 mph26%30.27 "HgN/A
2:30 PM54 °FClear.6 mph30%30.24 "Hg4 mi
2:00 PM54 °FClear.8 mph33%30.27 "Hg4 mi
Weather by CustomWeather, © 2014

See weather overviewHow to use our weather pages